QPF
0.01 0.01 0.01 0.01 0.01 0.01 0.01 0.01 0.01 0.01 0.00 0.00 0.01 0.01 0.02 0.02 0.04 0.03 0.03 0.04 0.05 0.05 0.04 0.04 0.04 0.04 0.04 0.04 0.03 0.03 0.03 0.03 0.03 0.03 0.03 0.04 0.04 0.04 0.02 0.02 0.01 0.02 0.02 0.02
0.01 0.01 0.01 0.01 0.01 0.01 0.01 0.01 0.01 0.01 0.01 0.01 0.01 0.02 0.03 0.03 0.03 0.03 0.03 0.03 0.04 0.03 0.03 0.03 0.04 0.04 0.04 0.03 0.03 0.03 0.03 0.03 0.02 0.02 0.02 0.02 0.02 0.02 0.01 0.01 0.01 0.01 0.01 0.02
0.01 0.01 0.02 0.02 0.01 0.02 0.02 0.01 0.03 0.02 0.01 0.01 0.01 0.02 0.02 0.02 0.02 0.02 0.02 0.02 0.02 0.03 0.02 0.03 0.03 0.03 0.03 0.02 0.03 0.04 0.04 0.02 0.02 0.01 0.01 0.01 0.00 0.00 0.00 0.01 0.01 0.02 0.02 0.02
0.00 0.01 0.01 0.02 0.02 0.01 0.02 0.02 0.02 0.02 0.02 0.02 0.01 0.01 0.01 0.01 0.01 0.01 0.01 0.01 0.02 0.02 0.03 0.02 0.02 0.02 0.02 0.02 0.03 0.05 0.03 0.02 0.02 0.01 0.01 0.01 0.01 0.01 0.01 0.01 0.01 0.01 0.01 0.01
0.01 0.01 0.02 0.03 0.02 0.02 0.02 0.02 0.02 0.02 0.03 0.02 0.01 0.01 0.01 0.01 0.01 0.01 0.01 0.02 0.02 0.03 0.03 0.03 0.02 0.02 0.01 0.02 0.02 0.02 0.01 0.01 0.01 0.01 0.01 0.01 0.01 0.01 0.02 0.02 0.02 0.02 0.02 0.02
0.01 0.01 0.02 0.01 0.01 0.02 0.02 0.02 0.00 0.00 0.01 0.01 0.01 0.01 0.01 0.01 0.02 0.02 0.03 0.03 0.03 0.02 0.03 0.03 0.04 0.03 0.02 0.02 0.02 0.01 0.01 0.01 0.00 0.01 0.01 0.01 0.01 0.02 0.02 0.01 0.01 0.01 0.01 0.01
0.01 0.01 0.01 0.01 0.01 0.01 0.01 0.01 0.00 0.00 0.01 0.01 0.01 0.01 0.01 0.01 0.02 0.03 0.04 0.04 0.02 0.02 0.03 0.04 0.05 0.04 0.02 0.02 0.01 0.01 0.01 0.01 0.01 0.01 0.01 0.01 0.01 0.01 0.01 0.01 0.01 0.01 0.01 0.01
0.01 0.01 0.00 0.01 0.01 0.02 0.02 0.01 0.01 0.01 0.01 0.01 0.01 0.01 0.01 0.01 0.02 0.03 0.04 0.04 0.02 0.01 0.02 0.03 0.04 0.05 0.03 0.02 0.01 0.01 0.01 0.02 0.02 0.01 0.01 0.01 0.01 0.01 0.01 0.01 0.00 0.00 0.01 0.01
0.01 0.00 0.00 0.00 0.00 0.01 0.01 0.01 0.01 0.01 0.01 0.01 0.01 0.01 0.02 0.02 0.02 0.03 0.03 0.02 0.01 0.02 0.02 0.02 0.02 0.04 0.03 0.02 0.01 0.01 0.01 0.02 0.01 0.02 0.01 0.01 0.01 0.01 0.02 0.02 0.01 0.01 0.01 0.01
0.00 0.00 0.00 0.00 0.00 0.01 0.01 0.01 0.01 0.01 0.01 0.01 0.01 0.02 0.03 0.03 0.02 0.02 0.02 0.02 0.02 0.02 0.02 0.02 0.01 0.02 0.03 0.03 0.02 0.01 0.01 0.02 0.02 0.02 0.02 0.02 0.01 0.01 0.02 0.02 0.02 0.02 0.02 0.01
0.01 0.01 0.01 0.01 0.02 0.02 0.01 0.01 0.01 0.01 0.01 0.01 0.01 0.01 0.02 0.03 0.02 0.02 0.02 0.01 0.02 0.02 0.02 0.02 0.02 0.03 0.04 0.05 0.03 0.02 0.02 0.02 0.02 0.02 0.02 0.02 0.01 0.01 0.01 0.01 0.01 0.02 0.01 0.01
0.01 0.01 0.02 0.02 0.03 0.02 0.02 0.01 0.01 0.01 0.01 0.01 0.01 0.01 0.01 0.01 0.02 0.02 0.01 0.01 0.02 0.02 0.02 0.02 0.02 0.03 0.03 0.04 0.04 0.02 0.02 0.02 0.02 0.02 0.02 0.02 0.01 0.01 0.02 0.01 0.02 0.01 0.01 0.01
0.02 0.02 0.03 0.03 0.02 0.01 0.01 0.01 0.01 0.01 0.01 0.01 0.01 0.01 0.01 0.02 0.02 0.02 0.02 0.02 0.02 0.02 0.01 0.02 0.03 0.03 0.03 0.03 0.03 0.02 0.02 0.02 0.02 0.01 0.01 0.01 0.01 0.02 0.02 0.02 0.02 0.02 0.01 0.01
0.02 0.03 0.03 0.03 0.03 0.03 0.02 0.01 0.01 0.01 0.01 0.01 0.01 0.02 0.02 0.02 0.03 0.03 0.03 0.02 0.02 0.02 0.01 0.01 0.04 0.04 0.03 0.02 0.02 0.03 0.03 0.02 0.01 0.01 0.01 0.02 0.03 0.03 0.03 0.03 0.03 0.02 0.01 0.01
0.02 0.02 0.02 0.03 0.04 0.07 0.08 0.05 0.03 0.02 0.02 0.02 0.02 0.02 0.03 0.03 0.03 0.05 0.07 0.05 0.03 0.02 0.01 0.01 0.02 0.03 0.03 0.03 0.03 0.03 0.03 0.02 0.02 0.01 0.02 0.02 0.03 0.03 0.03 0.03 0.03 0.02 0.02 0.01
0.02 0.02 0.01 0.02 0.04 0.06 0.08 0.07 0.05 0.04 0.03 0.03 0.03 0.04 0.05 0.05 0.05 0.05 0.05 0.04 0.03 0.02 0.01 0.01 0.01 0.01 0.02 0.02 0.03 0.04 0.03 0.03 0.03 0.02 0.02 0.02 0.02 0.02 0.02 0.02 0.02 0.02 0.01 0.00
0.03 0.03 0.02 0.02 0.02 0.04 0.05 0.05 0.06 0.05 0.06 0.06 0.05 0.05 0.06 0.07 0.07 0.05 0.04 0.04 0.04 0.03 0.02 0.01 0.01 0.01 0.01 0.01 0.03 0.04 0.04 0.03 0.03 0.03 0.04 0.03 0.03 0.02 0.02 0.01 0.01 0.01 0.01 0.00
0.02 0.02 0.02 0.02 0.02 0.03 0.03 0.02 0.02 0.03 0.04 0.04 0.05 0.05 0.06 0.06 0.05 0.03 0.03 0.02 0.03 0.03 0.02 0.01 0.01 0.01 0.01 0.01 0.02 0.04 0.04 0.03 0.02 0.02 0.03 0.03 0.03 0.03 0.03 0.03 0.02 0.02 0.01 0.02
0.02 0.02 0.02 0.03 0.03 0.02 0.01 0.01 0.01 0.01 0.01 0.01 0.01 0.02 0.02 0.02 0.02 0.01 0.01 0.01 0.01 0.02 0.02 0.01 0.01 0.01 0.01 0.01 0.01 0.02 0.03 0.03 0.02 0.02 0.03 0.04 0.04 0.03 0.03 0.03 0.03 0.02 0.02 0.02
0.02 0.01 0.01 0.02 0.02 0.02 0.01 0.01 0.01 0.01 0.01 0.01 0.01 0.02 0.02 0.02 0.02 0.01 0.01 0.01 0.01 0.02 0.02 0.02 0.02 0.01 0.01 0.01 0.01 0.01 0.02 0.02 0.01 0.02 0.02 0.02 0.02 0.02 0.01 0.01 0.02 0.02 0.02 0.02
0.02 0.01 0.01 0.03 0.03 0.02 0.02 0.02 0.01 0.01 0.01 0.02 0.02 0.02 0.04 0.03 0.02 0.01 0.01 0.01 0.01 0.02 0.02 0.02 0.02 0.02 0.01 0.01 0.01 0.01 0.02 0.01 0.01 0.01 0.02 0.02 0.01 0.01 0.01 0.02 0.03 0.04 0.05 0.04
0.02 0.02 0.02 0.03 0.03 0.02 0.02 0.02 0.02 0.02 0.02 0.02 0.02 0.02 0.03 0.03 0.03 0.02 0.02 0.02 0.02 0.02 0.02 0.02 0.02 0.02 0.01 0.01 0.01 0.01 0.02 0.01 0.01 0.01 0.01 0.01 0.02 0.02 0.02 0.02 0.02 0.02 0.03 0.04
0.02 0.02 0.02 0.03 0.03 0.02 0.02 0.02 0.01 0.01 0.01 0.02 0.02 0.03 0.02 0.02 0.03 0.02 0.02 0.03 0.03 0.03 0.02 0.02 0.03 0.03 0.03 0.02 0.01 0.01 0.02 0.02 0.02 0.02 0.02 0.02 0.02 0.02 0.03 0.02 0.02 0.01 0.01 0.01
0.03 0.03 0.03 0.03 0.02 0.01 0.01 0.01 0.01 0.01 0.01 0.02 0.03 0.03 0.02 0.01 0.02 0.02 0.02 0.02 0.02 0.02 0.02 0.03 0.03 0.03 0.04 0.03 0.02 0.02 0.02 0.02 0.02 0.02 0.02 0.01 0.01 0.01 0.01 0.01 0.01 0.01 0.01 0.01
0.03 0.03 0.03 0.02 0.02 0.01 0.02 0.01 0.01 0.02 0.02 0.02 0.03 0.03 0.02 0.02 0.02 0.03 0.03 0.03 0.02 0.03 0.02 0.02 0.02 0.02 0.02 0.02 0.01 0.01 0.01 0.01 0.01 0.01 0.01 0.01 0.01 0.01 0.01 0.01 0.01 0.01 0.01 0.00
0.03 0.04 0.04 0.04 0.02 0.01 0.01 0.02 0.01 0.02 0.02 0.03 0.03 0.03 0.03 0.04 0.04 0.04 0.03 0.03 0.04 0.04 0.03 0.02 0.02 0.02 0.02 0.01 0.01 0.01 0.01 0.01 0.02 0.02 0.01 0.01 0.01 0.01 0.01 0.01 0.01 0.01 0.01 0.01
0.03 0.03 0.04 0.04 0.03 0.02 0.01 0.01 0.02 0.03 0.04 0.04 0.05 0.05 0.04 0.04 0.04 0.03 0.03 0.03 0.04 0.04 0.04 0.03 0.02 0.02 0.02 0.01 0.01 0.01 0.01 0.01 0.02 0.02 0.02 0.01 0.01 0.01 0.01 0.01 0.01 0.01 0.01 0.01
MSLP
1014.01 1014.14 1014.22 1014.24 1014.18 1014.03 1013.79 1013.46 1013.08 1012.69 1012.33 1012.04 1011.88 1011.87 1012.04 1012.36 1012.82 1013.38 1014.01 1014.65 1015.27 1015.84 1016.35 1016.79 1017.18 1017.52 1017.82 1018.10 1018.35 1018.57 1018.76 1018.91 1019.02 1019.07 1019.08 1019.03 1018.94 1018.80 1018.63 1018.42 1018.17 1017.87 1017.53 1017.13
1014.04 1014.04 1013.92 1013.69 1013.36 1012.95 1012.48 1011.99 1011.54 1011.15 1010.88 1010.76 1010.80 1011.01 1011.38 1011.88 1012.48 1013.13 1013.80 1014.46 1015.09 1015.66 1016.19 1016.68 1017.13 1017.55 1017.95 1018.33 1018.67 1018.97 1019.21 1019.39 1019.49 1019.53 1019.51 1019.43 1019.31 1019.15 1018.96 1018.73 1018.47 1018.16 1017.80 1017.39
1013.94 1013.79 1013.47 1013.02 1012.45 1011.82 1011.18 1010.59 1010.09 1009.74 1009.57 1009.60 1009.83 1010.23 1010.78 1011.43 1012.13 1012.86 1013.58 1014.25 1014.89 1015.47 1016.03 1016.56 1017.07 1017.57 1018.06 1018.51 1018.93 1019.28 1019.57 1019.76 1019.88 1019.91 1019.87 1019.77 1019.63 1019.46 1019.26 1019.03 1018.76 1018.45 1018.09 1017.67
1013.68 1013.37 1012.87 1012.23 1011.47 1010.69 1009.94 1009.29 1008.80 1008.51 1008.45 1008.62 1009.01 1009.57 1010.26 1011.03 1011.83 1012.62 1013.37 1014.07 1014.72 1015.33 1015.91 1016.48 1017.04 1017.60 1018.15 1018.67 1019.13 1019.52 1019.83 1020.04 1020.15 1020.19 1020.14 1020.05 1019.91 1019.75 1019.56 1019.35 1019.09 1018.79 1018.42 1018.00
1013.24 1012.78 1012.12 1011.32 1010.45 1009.57 1008.77 1008.12 1007.67 1007.47 1007.52 1007.82 1008.35 1009.05 1009.86 1010.72 1011.60 1012.43 1013.22 1013.94 1014.61 1015.24 1015.85 1016.46 1017.06 1017.66 1018.24 1018.79 1019.28 1019.68 1020.00 1020.21 1020.33 1020.37 1020.34 1020.26 1020.15 1020.02 1019.87 1019.69 1019.47 1019.19 1018.84 1018.42
1012.63 1012.02 1011.23 1010.34 1009.39 1008.49 1007.69 1007.09 1006.71 1006.61 1006.78 1007.21 1007.85 1008.66 1009.56 1010.50 1011.43 1012.31 1013.13 1013.88 1014.57 1015.23 1015.86 1016.49 1017.11 1017.73 1018.33 1018.88 1019.37 1019.77 1020.08 1020.29 1020.41 1020.46 1020.46 1020.42 1020.35 1020.28 1020.18 1020.05 1019.88 1019.64 1019.33 1018.92
1011.85 1011.11 1010.24 1009.29 1008.34 1007.46 1006.73 1006.20 1005.94 1005.95 1006.23 1006.76 1007.50 1008.39 1009.35 1010.34 1011.31 1012.23 1013.08 1013.86 1014.58 1015.26 1015.92 1016.56 1017.19 1017.81 1018.40 1018.93 1019.40 1019.79 1020.08 1020.29 1020.42 1020.49 1020.52 1020.52 1020.52 1020.51 1020.47 1020.41 1020.30 1020.11 1019.84 1019.46
1010.90 1010.08 1009.17 1008.23 1007.32 1006.52 1005.90 1005.49 1005.35 1005.47 1005.86 1006.47 1007.29 1008.22 1009.23 1010.25 1011.25 1012.20 1013.07 1013.88 1014.62 1015.32 1015.99 1016.64 1017.27 1017.87 1018.43 1018.94 1019.38 1019.74 1020.02 1020.22 1020.37 1020.46 1020.53 1020.59 1020.64 1020.69 1020.72 1020.72 1020.67 1020.53 1020.30 1019.97
1009.84 1008.98 1008.09 1007.20 1006.39 1005.72 1005.23 1004.97 1004.95 1005.19 1005.66 1006.35 1007.20 1008.17 1009.19 1010.23 1011.24 1012.20 1013.09 1013.91 1014.68 1015.39 1016.07 1016.71 1017.32 1017.90 1018.43 1018.90 1019.31 1019.65 1019.91 1020.12 1020.28 1020.40 1020.51 1020.61 1020.71 1020.81 1020.89 1020.94 1020.93 1020.85 1020.66 1020.36
1008.69 1007.86 1007.04 1006.27 1005.61 1005.10 1004.77 1004.65 1004.76 1005.10 1005.64 1006.37 1007.24 1008.21 1009.23 1010.26 1011.27 1012.23 1013.13 1013.97 1014.74 1015.46 1016.14 1016.77 1017.35 1017.90 1018.39 1018.83 1019.21 1019.53 1019.78 1019.99 1020.17 1020.32 1020.46 1020.60 1020.73 1020.86 1020.98 1021.05 1021.07 1021.01 1020.86 1020.60
1007.51 1006.77 1006.08 1005.48 1005.00 1004.67 1004.52 1004.55 1004.78 1005.20 1005.80 1006.54 1007.41 1008.36 1009.35 1010.36 1011.35 1012.31 1013.21 1014.05 1014.83 1015.55 1016.21 1016.82 1017.38 1017.89 1018.34 1018.75 1019.10 1019.40 1019.65 1019.87 1020.06 1020.24 1020.40 1020.56 1020.71 1020.85 1020.96 1021.04 1021.07 1021.02 1020.89 1020.67
1006.37 1005.76 1005.25 1004.85 1004.58 1004.45 1004.47 1004.65 1004.99 1005.47 1006.09 1006.83 1007.67 1008.59 1009.54 1010.52 1011.48 1012.42 1013.32 1014.15 1014.93 1015.64 1016.29 1016.87 1017.40 1017.88 1018.30 1018.67 1019.00 1019.29 1019.54 1019.77 1019.97 1020.16 1020.34 1020.51 1020.66 1020.79 1020.89 1020.95 1020.96 1020.91 1020.79 1020.59
1005.29 1004.87 1004.57 1004.39 1004.34 1004.41 1004.60 1004.91 1005.33 1005.86 1006.49 1007.21 1008.01 1008.87 1009.78 1010.71 1011.65 1012.57 1013.46 1014.29 1015.06 1015.76 1016.39 1016.95 1017.44 1017.88 1018.27 1018.61 1018.92 1019.20 1019.45 1019.69 1019.91 1020.11 1020.30 1020.46 1020.60 1020.71 1020.78 1020.81 1020.79 1020.73 1020.60 1020.43
1004.32 1004.11 1004.03 1004.08 1004.24 1004.51 1004.85 1005.27 1005.76 1006.31 1006.93 1007.61 1008.37 1009.18 1010.03 1010.93 1011.84 1012.74 1013.61 1014.44 1015.20 1015.89 1016.50 1017.03 1017.50 1017.90 1018.25 1018.57 1018.86 1019.13 1019.38 1019.63 1019.86 1020.08 1020.27 1020.43 1020.55 1020.63 1020.68 1020.67 1020.63 1020.54 1020.41 1020.24
1003.48 1003.48 1003.62 1003.89 1004.25 1004.68 1005.16 1005.67 1006.20 1006.77 1007.37 1008.01 1008.71 1009.47 1010.28 1011.14 1012.02 1012.90 1013.77 1014.59 1015.34 1016.02 1016.61 1017.11 1017.55 1017.91 1018.24 1018.52 1018.79 1019.06 1019.32 1019.57 1019.82 1020.04 1020.24 1020.40 1020.51 1020.58 1020.59 1020.56 1020.48 1020.37 1020.23 1020.07
1002.77 1002.97 1003.32 1003.78 1004.32 1004.89 1005.48 1006.05 1006.62 1007.18 1007.76 1008.36 1009.01 1009.72 1010.49 1011.31 1012.16 1013.03 1013.89 1014.70 1015.44 1016.11 1016.68 1017.16 1017.56 1017.90 1018.19 1018.46 1018.71 1018.97 1019.23 1019.49 1019.75 1019.99 1020.19 1020.35 1020.47 1020.52 1020.52 1020.47 1020.37 1020.24 1020.09 1019.93
1002.20 1002.58 1003.10 1003.73 1004.41 1005.09 1005.76 1006.38 1006.97 1007.53 1008.07 1008.64 1009.25 1009.91 1010.64 1011.43 1012.26 1013.11 1013.95 1014.75 1015.48 1016.13 1016.68 1017.14 1017.52 1017.83 1018.09 1018.34 1018.58 1018.83 1019.09 1019.36 1019.63 1019.88 1020.10 1020.27 1020.39 1020.44 1020.43 1020.37 1020.27 1020.13 1019.97 1019.79
1001.78 1002.29 1002.96 1003.71 1004.49 1005.26 1005.98 1006.64 1007.24 1007.79 1008.31 1008.85 1009.42 1010.05 1010.74 1011.50 1012.30 1013.12 1013.94 1014.72 1015.43 1016.06 1016.59 1017.03 1017.38 1017.67 1017.92 1018.15 1018.38 1018.62 1018.89 1019.16 1019.44 1019.71 1019.94 1020.12 1020.25 1020.31 1020.30 1020.24 1020.13 1019.98 1019.81 1019.63
1001.51 1002.12 1002.88 1003.71 1004.56 1005.38 1006.14 1006.82 1007.43 1007.97 1008.48 1008.99 1009.54 1010.13 1010.79 1011.51 1012.27 1013.06 1013.85 1014.59 1015.28 1015.87 1016.38 1016.80 1017.13 1017.41 1017.65 1017.87 1018.10 1018.35 1018.61 1018.90 1019.18 1019.46 1019.70 1019.89 1020.03 1020.09 1020.09 1020.03 1019.92 1019.77 1019.59 1019.39
1001.39 1002.06 1002.87 1003.74 1004.63 1005.47 1006.25 1006.93 1007.54 1008.08 1008.59 1009.08 1009.60 1010.16 1010.78 1011.46 1012.18 1012.92 1013.66 1014.37 1015.01 1015.58 1016.06 1016.46 1016.79 1017.06 1017.30 1017.53 1017.76 1018.02 1018.29 1018.58 1018.87 1019.14 1019.39 1019.58 1019.72 1019.78 1019.78 1019.72 1019.61 1019.46 1019.27 1019.07
1001.43 1002.12 1002.93 1003.80 1004.68 1005.53 1006.30 1006.99 1007.60 1008.14 1008.63 1009.11 1009.61 1010.14 1010.72 1011.35 1012.02 1012.70 1013.39 1014.04 1014.65 1015.18 1015.65 1016.03 1016.36 1016.64 1016.89 1017.14 1017.39 1017.65 1017.93 1018.22 1018.51 1018.78 1019.02 1019.20 1019.33 1019.39 1019.39 1019.32 1019.21 1019.05 1018.87 1018.66
1001.62 1002.28 1003.05 1003.89 1004.74 1005.55 1006.31 1006.99 1007.59 1008.13 1008.62 1009.09 1009.56 1010.06 1010.60 1011.18 1011.78 1012.41 1013.03 1013.64 1014.20 1014.70 1015.15 1015.54 1015.87 1016.17 1016.45 1016.72 1016.99 1017.27 1017.56 1017.85 1018.13 1018.39 1018.61 1018.78 1018.88 1018.93 1018.91 1018.84 1018.72 1018.57 1018.39 1018.19
1001.94 1002.52 1003.23 1004.00 1004.79 1005.55 1006.27 1006.93 1007.52 1008.04 1008.52 1008.98 1009.44 1009.91 1010.40 1010.92 1011.47 1012.03 1012.60 1013.15 1013.67 1014.15 1014.59 1014.99 1015.34 1015.67 1015.98 1016.28 1016.58 1016.88 1017.18 1017.46 1017.73 1017.97 1018.16 1018.30 1018.39 1018.41 1018.38 1018.31 1018.19 1018.05 1017.89 1017.72
1002.33 1002.83 1003.43 1004.11 1004.82 1005.52 1006.18 1006.80 1007.36 1007.87 1008.34 1008.78 1009.21 1009.65 1010.10 1010.58 1011.07 1011.58 1012.09 1012.60 1013.08 1013.55 1013.99 1014.40 1014.79 1015.15 1015.50 1015.83 1016.16 1016.48 1016.78 1017.06 1017.31 1017.51 1017.68 1017.79 1017.84 1017.85 1017.81 1017.73 1017.63 1017.52 1017.39 1017.26
1002.77 1003.15 1003.64 1004.21 1004.82 1005.43 1006.03 1006.60 1007.12 1007.61 1008.05 1008.47 1008.88 1009.29 1009.71 1010.14 1010.58 1011.04 1011.51 1011.99 1012.45 1012.91 1013.36 1013.79 1014.20 1014.61 1014.99 1015.36 1015.71 1016.03 1016.34 1016.60 1016.82 1017.00 1017.13 1017.21 1017.24 1017.23 1017.19 1017.13 1017.06 1016.98 1016.91 1016.83
1003.19 1003.46 1003.83 1004.28 1004.78 1005.30 1005.82 1006.32 1006.80 1007.25 1007.67 1008.07 1008.45 1008.83 1009.22 1009.61 1010.02 1010.44 1010.88 1011.33 1011.79 1012.25 1012.71 1013.16 1013.60 1014.03 1014.45 1014.84 1015.20 1015.53 1015.81 1016.06 1016.25 1016.40 1016.49 1016.55 1016.56 1016.55 1016.52 1016.49 1016.46 1016.44 1016.43 1016.44
1003.55 1003.71 1003.97 1004.31 1004.70 1005.12 1005.56 1005.99 1006.42 1006.83 1007.21 1007.58 1007.94 1008.30 1008.66 1009.03 1009.41 1009.81 1010.23 1010.67 1011.12 1011.58 1012.05 1012.52 1012.98 1013.42 1013.85 1014.25 1014.61 1014.92 1015.19 1015.41 1015.57 1015.68 1015.75 1015.78 1015.79 1015.79 1015.79 1015.79 1015.82 1015.88 1015.95 1016.05
Thickness
5743 5752 5755 5756 5757 5755 5751 5746 5740 5750 5754 5768 5776 5780 5782 5782 5780 5776 5774 5772 5770 5767 5764 5763 5761 5758 5756 5754 5751 5747 5743 5739 5735 5732 5729 5726 5723 5720 5718 5716 5713 5709 5706 5704
5738 5748 5751 5751 5757 5757 5756 5754 5752 5756 5759 5776 5780 5780 5778 5777 5776 5772 5771 5771 5770 5767 5763 5760 5758 5755 5752 5749 5746 5743 5738 5734 5731 5727 5724 5720 5717 5714 5712 5709 5706 5702 5699 5696
5721 5735 5742 5735 5750 5754 5755 5758 5757 5752 5763 5774 5773 5775 5775 5775 5773 5772 5771 5770 5767 5765 5761 5758 5756 5753 5748 5744 5741 5737 5733 5729 5725 5722 5718 5715 5712 5708 5705 5702 5699 5696 5692 5689
5709 5722 5714 5738 5759 5760 5756 5757 5760 5762 5766 5769 5772 5775 5777 5776 5773 5772 5771 5768 5766 5762 5758 5756 5754 5750 5746 5741 5737 5733 5729 5724 5721 5717 5713 5709 5706 5702 5698 5695 5692 5689 5685 5682
5697 5702 5713 5737 5752 5753 5748 5749 5760 5759 5762 5766 5770 5770 5770 5776 5775 5773 5771 5769 5766 5761 5757 5753 5749 5746 5741 5736 5732 5727 5723 5720 5716 5712 5708 5704 5700 5696 5692 5688 5685 5682 5678 5674
5694 5699 5701 5729 5752 5758 5750 5738 5757 5758 5757 5759 5762 5752 5759 5771 5770 5769 5768 5765 5761 5757 5753 5748 5744 5741 5735 5730 5726 5722 5719 5715 5711 5707 5703 5698 5694 5690 5686 5682 5678 5675 5671 5667
5691 5694 5705 5733 5746 5751 5728 5733 5755 5756 5756 5755 5754 5756 5763 5767 5766 5764 5762 5760 5756 5751 5746 5743 5739 5735 5729 5724 5720 5718 5714 5710 5705 5701 5697 5693 5688 5684 5679 5675 5671 5667 5663 5659
5684 5688 5700 5733 5736 5731 5732 5746 5750 5752 5754 5752 5754 5758 5759 5760 5759 5758 5755 5752 5749 5744 5739 5736 5733 5729 5723 5718 5715 5712 5708 5703 5699 5695 5692 5687 5681 5676 5672 5668 5663 5658 5654 5650
5692 5700 5717 5727 5730 5736 5739 5740 5745 5747 5750 5751 5751 5751 5752 5752 5752 5751 5748 5745 5742 5738 5733 5728 5726 5723 5718 5714 5710 5706 5701 5696 5691 5687 5683 5679 5674 5669 5664 5660 5655 5651 5646 5642
5692 5705 5716 5722 5728 5733 5736 5738 5742 5745 5746 5747 5745 5746 5745 5744 5743 5742 5740 5737 5735 5731 5726 5721 5718 5716 5713 5709 5705 5699 5694 5689 5684 5679 5675 5670 5666 5662 5657 5652 5648 5643 5639 5634
5687 5700 5710 5718 5722 5726 5731 5734 5737 5738 5740 5740 5740 5739 5738 5737 5736 5734 5732 5730 5727 5724 5720 5715 5712 5709 5706 5702 5698 5692 5687 5682 5677 5673 5668 5663 5658 5654 5650 5646 5642 5636 5632 5627
5684 5696 5698 5706 5716 5721 5722 5724 5727 5728 5729 5732 5733 5732 5732 5729 5728 5727 5724 5721 5718 5716 5712 5709 5706 5703 5699 5696 5692 5686 5680 5675 5670 5665 5660 5656 5651 5647 5643 5639 5635 5631 5626 5621
5691 5697 5698 5704 5710 5714 5714 5717 5720 5721 5722 5723 5725 5725 5724 5722 5721 5719 5716 5714 5711 5707 5704 5701 5698 5695 5692 5688 5684 5679 5674 5668 5663 5659 5654 5650 5645 5641 5636 5632 5628 5624 5619 5615
5689 5691 5692 5697 5700 5706 5708 5710 5712 5713 5714 5716 5717 5717 5716 5714 5712 5710 5708 5707 5704 5700 5697 5694 5691 5687 5685 5681 5677 5672 5667 5663 5658 5653 5649 5644 5640 5635 5631 5626 5622 5618 5613 5609
5685 5687 5689 5692 5695 5697 5700 5702 5701 5701 5703 5705 5708 5707 5706 5705 5703 5702 5700 5699 5696 5693 5689 5686 5683 5680 5677 5674 5670 5665 5661 5656 5651 5647 5643 5638 5634 5630 5625 5620 5616 5612 5608 5604
5679 5682 5683 5685 5686 5689 5691 5692 5692 5692 5694 5695 5697 5698 5698 5697 5696 5694 5692 5690 5687 5684 5682 5679 5676 5674 5671 5667 5663 5659 5655 5651 5646 5641 5637 5632 5628 5624 5619 5615 5610 5607 5603 5599
5668 5671 5674 5676 5679 5681 5683 5685 5686 5686 5687 5687 5688 5689 5689 5688 5686 5685 5684 5683 5681 5678 5676 5674 5670 5667 5663 5660 5657 5653 5649 5645 5641 5636 5631 5627 5623 5619 5614 5610 5606 5602 5598 5594
5669 5671 5673 5672 5673 5674 5676 5678 5679 5680 5680 5681 5681 5681 5680 5680 5678 5677 5675 5673 5671 5669 5669 5668 5666 5662 5658 5655 5652 5648 5643 5639 5634 5630 5626 5621 5617 5613 5609 5605 5601 5597 5593 5589
5665 5666 5668 5668 5670 5670 5671 5671 5673 5674 5675 5675 5674 5673 5672 5672 5672 5670 5668 5666 5664 5661 5661 5661 5659 5656 5653 5650 5646 5642 5637 5633 5628 5623 5619 5615 5610 5607 5603 5600 5596 5592 5588 5584
5659 5661 5662 5663 5665 5665 5664 5665 5666 5667 5668 5669 5668 5667 5665 5665 5664 5663 5661 5659 5658 5658 5657 5655 5653 5650 5647 5644 5641 5636 5632 5627 5623 5618 5614 5610 5606 5601 5598 5594 5591 5588 5584 5579
5652 5654 5656 5656 5657 5659 5659 5659 5659 5660 5661 5662 5662 5661 5659 5658 5658 5657 5654 5652 5652 5652 5650 5648 5646 5644 5641 5638 5635 5631 5626 5622 5618 5613 5609 5605 5601 5597 5593 5589 5586 5582 5578 5575
5646 5648 5648 5649 5650 5650 5652 5653 5653 5653 5654 5655 5655 5655 5653 5652 5651 5650 5649 5648 5647 5646 5643 5641 5640 5638 5635 5631 5628 5625 5621 5617 5612 5608 5604 5600 5596 5592 5588 5584 5580 5577 5573 5569
5639 5641 5642 5643 5643 5643 5644 5645 5645 5646 5647 5648 5649 5649 5649 5648 5646 5644 5642 5643 5642 5640 5637 5635 5634 5631 5628 5625 5622 5619 5615 5611 5607 5603 5599 5595 5592 5588 5583 5580 5576 5572 5568 5564
5633 5635 5636 5637 5638 5638 5637 5638 5639 5641 5642 5643 5644 5644 5643 5641 5640 5640 5639 5638 5636 5634 5631 5629 5627 5624 5621 5618 5616 5612 5609 5606 5602 5598 5594 5590 5587 5583 5579 5575 5571 5567 5563 5559
5627 5629 5630 5631 5631 5632 5633 5633 5634 5635 5637 5637 5638 5639 5638 5638 5636 5635 5634 5632 5630 5628 5626 5624 5621 5618 5616 5613 5610 5607 5604 5601 5597 5593 5589 5585 5582 5578 5574 5570 5566 5562 5558 5554
5621 5623 5624 5626 5626 5627 5628 5629 5629 5630 5631 5632 5632 5632 5632 5632 5631 5629 5628 5626 5624 5622 5620 5617 5615 5612 5610 5608 5605 5602 5599 5596 5592 5588 5585 5581 5577 5574 5570 5566 5562 5558 5554 5550
5616 5617 5618 5619 5620 5622 5623 5624 5625 5626 5627 5627 5626 5626 5625 5625 5624 5623 5622 5619 5618 5616 5614 5611 5608 5606 5604 5602 5600 5597 5594 5590 5586 5583 5580 5576 5573 5569 5566 5562 5558 5554 5550 5546